SCP
0 0 0 0 0 0 0 0 0 0 0 0 0 0 0 0 0 0 0 0 0 0 0 0 0 0 0 0 0 0 0 0 0 0 0 0 0 0 0 0 0 0 0
0 0 0 0 0 0 0 0 0 0 0 0 0 0 0 0 0 0 0 0 0 0 0 0 0 0 0 0 0 0 0 0 0 0 0 0 0 0 0 0 0 0 0
0 0 0 0 0 0 0 0 0 0 0 0 0 0 0 0 0 0 0 0 0 0 0 0 0 0 0 0 0 0 0 0 0 0 0 0 0 0 0 0 0 0 0
0 0 0 0 0 0 0 0 0 0 0 0 0 0 0 0 0 0 0 0 0 0 0 0 0 0 0 0 0 0 0 0 0 0 0 0 0 0 0 0 0 0 0
0 0 0 0 0 0 0 0 0 0 0 0 0 0 0 0 0 0 0 0 0 0 0 0 0 0 0 0 0 0 0 0 0 0 0 0 0 0 0 0 0 0 0
0 0 0 0 0 0 0 0 0 0 0 0 0 0 0 0 0 0 0 0 0 0 0 0 0 0 0 0 0 0 0 0 0 0 0 0 0 0 0 0 0 0 0
0 0 0 0 0 0 0 0 0 0 0 0 0 0 0 0 0 0 0 0 0 0 0 0 0 0 0 0 0 0 0 0 0 0 0 0 0 0 0 0 0 0 0
0 0 0 0 0 0 0 0 0 0 0 0 0 0 0 0 0 0 0 0 0 0 0 0 0 0 0 0 0 0 0 0 0 0 0 0 0 0 0 0 0 0 0
0 0 0 0 0 0 0 0 0 0 0 0 0 0 0 0 0 0 0 0 0 0 0 0 0 0 0 0 0 0 0 0 0 0 0 0 0 0 0 0 0 0 0
0 0 0 0 0 0 0 0 0 0 0 0 0 0 0 0 0 0 0 0 0 0 0 0 0 0 0 0 0 0 0 0 0 0 0 0 0 0 0 0 0 0 0
0 0 0 0 0 0 0 0 0 0 0 0 0 0 0 0 0 0 0 0 0 0 0 0 0 0 0 0 0 0 0 0 0 0 0 0 0 0 0 0 0 0 0
0 0 0 0 0 0 0 0 0 0 0 0 0 0 0 0 0 0 0 0 0 0 0 0 0 0 0 0 0 0 0 0 0 0 0 0 0 0 0 0 0 0 0
0 0 0 0 0 0 0 0 0 0 0 0 0 0 0 0 0 0 0 0 0 0 0 0 0 0 0 0 0 0 0 0 0 0 0 0 0 0 0 0 0 0 0
0 0 0 0 0 0 0 0 0 0 0 0 0 0 0 0 0 0 0 0 0 0 0 0 0 0 0 0 0 0 0 0 0 0 0 0 0 0 0 0 0 0 0
0 0 0 0 0 0 0 0 0 0 0 0 0 0 0 0 0 0 0 0 0 0 0 0 0 0 0 0 0 0 0 0 0 0 0 0 0 0 0 0 0 0 0
0 0 0 0 0 0 0 0 0 0 0 0 0 0 0 0 0 0 0 0 0 0 0 0 0 0 0 0 0 0 0 0 0 0 0 0 0 0 0 0 0 0 0
0 0 0 0 0 0 0 0 0 0 0 0 0 0 0 0 0 0 0 0 0 0 0 0 0 0 0 0 0 0 0 0 0 0 0 0 0 0 0 0 0 0 0
0 0 0 0 0 0 0 0 0 0 0 0 0 0 0 0 0 0 0 0 0 0 0 0 0 0 0 0 0 0 0 0 0 0 0 0 0 0 0 0 0 0 0
0 0 0 0 0 0 0 0 0 0 0 0 0 0 0 0 0 0 0 0 0 0 0 0 0 0 0 0 0 0 0 0 0 0 0 0 0 0 0 0 0 0 0
0 0 0 0 0 0 0 0 0 0 0 0 0 0 0 0 0 0 0 0 0 0 0 0 0 0 0 0 0 0 0 0 0 0 0 0 0 0 0 0 0 0 0
0 0 0 0 0 0 0 0 0 0 0 0 0 0 0 0 0 0 0 0 0 0 0 0 0 0 0 0 0 0 0 0 0 0 0 0 0 0 0 0 0 0 0
0 0 0 0 0 0 0 0 0 0 0 0 0 0 0 0 0 0 0 0 0 0 0 0 0 0 0 0 0 0 0 0 0 0 0 0 0 0 0 0 0 0 0
0 0 0 0 0 0 0 0 0 0 0 0 0 0 0 0 0 0 0 0 0 0 0 0 0 0 0 0 0 0 0 0 0 0 0 0 0 0 0 0 0 0 0
0 0 0 0 0 0 0 0 0 0 0 0 0 0 0 0 0 0 0 0 0 0 0 0 0 0 0 0 0 0 0 0 0 0 0 0 0 0 0 0 0 0 0
0 0 0 0 0 0 0 0 0 0 0 0 0 0 0 0 0 0 0 0 0 0 0 0 0 0 0 0 0 0 0 0 0 0 0 0 0 0 0 0 0 0 0
0 0 0 0 0 0 0 0 0 0 0 0 0 0 0 0 0 0 0 0 0 0 0 0 0 0 0 0 0 0 0 0 0 0 0 0 0 0 0 0 0 0 0
Wind_Speed_500mb
56 58 56 50 43 38 31 24 17 11 5 4 11 17 21 28 33 36 40 43 45 46 48 52 53 55 55 55 55 56 58 60 75 116 98 102 102 98 100 95 90 83 80
58 55 52 47 40 33 26 20 12 5 4 11 15 20 25 31 37 42 43 45 47 49 50 51 51 53 52 54 57 58 59 57 61 86 101 104 93 93 96 97 93 86 85
56 52 49 43 36 28 21 14 6 5 9 13 19 24 30 35 39 44 47 48 48 48 50 51 52 53 55 56 57 59 61 58 59 68 93 91 98 94 98 91 93 89 80
55 49 43 38 31 24 16 9 6 7 11 16 23 29 34 39 43 45 46 48 49 49 48 48 50 54 59 62 63 63 63 59 62 67 79 90 87 83 72 86 99 88 89
56 49 41 35 29 20 14 9 7 8 14 21 26 32 36 39 41 44 46 49 53 53 51 52 53 56 59 60 59 59 54 56 61 68 77 79 80 89 83 84 87 98 89
55 48 41 35 26 18 12 9 7 12 19 25 28 29 33 36 39 43 49 53 55 55 54 54 56 58 59 56 50 42 44 52 56 57 62 66 76 81 88 82 75 83 95
57 50 43 34 26 18 14 10 10 17 21 24 27 30 33 36 39 45 50 54 54 54 54 54 55 56 53 53 49 49 47 44 37 43 58 61 68 68 70 76 79 73 73
60 52 43 33 25 20 15 13 15 17 18 24 28 30 33 37 41 47 52 54 53 50 50 50 52 53 51 47 49 45 46 41 41 51 42 44 45 52 56 57 61 61 55
60 51 41 32 26 21 17 16 15 15 20 24 27 29 32 37 41 46 51 52 49 47 44 42 41 46 44 43 42 47 46 44 48 37 33 36 37 38 44 49 55 62 68
63 51 40 34 28 24 20 17 16 17 18 23 26 29 31 36 41 45 46 45 42 42 42 41 39 37 40 35 35 42 43 48 42 36 31 29 31 34 40 48 52 55 57
61 51 43 36 31 26 21 19 16 14 17 21 25 27 32 35 38 42 42 39 40 41 41 41 37 36 34 29 31 37 40 33 27 27 24 24 28 36 41 45 48 50 51
59 50 44 38 32 26 23 21 17 17 18 21 24 26 28 31 34 35 35 32 33 38 37 34 32 35 30 31 31 33 33 26 16 14 18 26 35 44 46 47 45 42 43
60 52 44 39 32 29 26 25 23 21 20 22 24 25 25 28 28 31 31 27 27 29 29 27 28 31 29 30 30 26 28 18 16 18 23 30 37 42 41 35 35 35 35
59 51 43 38 34 32 30 28 27 25 25 25 27 27 27 26 27 29 34 35 33 27 25 25 24 28 29 28 27 23 24 24 25 27 27 30 34 35 36 38 38 34 31
56 45 45 43 40 36 32 30 28 28 28 30 31 32 33 30 28 30 33 36 36 31 29 27 22 23 25 25 27 28 28 28 27 29 29 29 30 32 33 35 36 37 36
52 49 47 46 40 36 33 30 29 31 34 35 35 36 38 38 35 31 29 30 31 28 26 27 25 27 29 30 28 27 27 26 26 26 26 27 28 30 34 34 34 35 34
41 53 51 47 46 40 35 31 32 34 36 38 37 38 38 37 35 34 31 29 27 22 25 28 29 31 35 33 32 31 31 30 28 25 25 26 29 32 33 34 33 31 30
61 57 56 53 48 44 41 39 36 34 34 35 38 40 38 36 37 35 31 32 30 26 26 28 30 32 34 34 33 33 31 29 28 28 28 32 36 37 36 33 32 32 30
63 63 58 53 50 48 46 43 39 38 38 36 34 39 43 38 39 38 36 35 34 33 33 32 32 32 33 34 34 31 30 27 29 34 36 36 34 32 30 28 27 27 26
63 60 56 55 54 52 49 45 42 40 40 41 40 38 40 37 37 40 40 39 38 36 35 34 34 35 36 35 34 32 29 26 31 36 35 34 31 28 26 25 24 22 22
59 60 62 61 58 55 50 46 44 44 43 43 42 42 44 40 35 36 38 38 38 37 36 36 37 37 37 37 36 34 31 29 31 32 33 30 27 24 21 20 20 21 21
65 64 64 62 59 55 52 50 48 47 46 45 43 41 43 41 38 36 36 37 37 37 38 39 40 40 40 40 40 38 35 34 30 29 28 26 24 22 20 21 22 23 24
69 68 66 63 59 56 55 53 51 49 47 46 44 42 42 41 40 38 37 37 38 37 37 38 40 42 43 44 43 40 35 29 28 30 28 26 26 25 25 26 28 28 29
73 69 67 64 63 60 58 55 52 50 49 47 45 43 41 40 39 38 38 38 38 39 40 40 40 43 44 43 42 38 32 28 30 32 32 31 31 31 31 33 35 36 35
74 74 71 70 66 61 58 55 52 50 49 47 45 44 43 43 41 40 40 41 42 41 43 45 45 45 45 45 42 36 31 33 36 37 37 38 38 38 39 39 41 42 42
80 76 73 70 66 60 56 52 50 49 48 46 46 47 45 44 44 44 43 46 47 46 48 47 46 45 45 45 41 37 36 39 42 44 45 45 46 46 46 46 47 49 50
Wind_Direction_500mb
170 170 169 165 166 164 162 163 162 167 191 291 315 322 324 322 321 321 322 320 320 320 318 318 319 318 318 316 313 311 308 304 298 302 307 311 313 317 317 317 316 314 311
168 167 167 166 166 166 168 170 172 191 297 321 323 324 324 320 318 317 319 320 321 323 323 322 323 322 322 320 318 316 313 311 306 304 312 316 317 320 318 320 321 318 316
170 172 170 168 168 171 172 175 187 280 304 317 322 321 320 318 317 317 320 322 324 327 327 327 327 325 325 325 324 324 323 320 313 309 312 318 322 326 325 325 324 321 317
174 175 175 174 173 176 181 187 232 277 309 319 318 316 316 315 317 318 320 324 325 326 326 325 325 327 328 328 327 327 326 323 324 322 321 322 321 323 319 322 319 318 317
180 180 179 179 181 184 192 213 254 295 308 314 315 313 315 317 320 323 326 327 328 329 329 328 328 327 328 329 329 329 329 330 329 325 320 317 319 322 324 328 324 326 328
185 184 186 186 187 194 210 231 269 300 305 307 310 315 318 322 327 329 330 332 332 332 331 331 330 332 334 333 334 337 337 330 323 322 321 326 328 328 330 328 331 324 324
188 189 191 191 196 203 218 242 278 294 302 308 315 322 327 330 332 333 333 334 333 333 331 331 331 336 336 336 339 337 338 341 338 332 323 326 326 330 327 324 327 329 328
191 193 195 197 202 213 227 249 275 292 304 310 318 327 329 333 336 333 335 337 336 334 333 333 338 338 340 341 336 340 341 348 336 335 329 326 323 323 325 331 335 336 346
195 197 200 203 209 220 238 260 276 291 300 312 322 331 335 334 333 334 334 332 331 328 326 335 338 337 340 341 343 340 340 338 339 344 344 340 343 344 344 349 357 357 356
198 200 203 209 215 224 236 253 265 281 305 320 330 334 336 334 333 331 330 328 324 325 337 341 339 340 339 341 339 329 337 333 344 357 4 4 6 4 2 0 359 3 6
199 202 207 212 218 226 239 247 264 294 309 323 327 332 333 332 329 328 330 333 331 336 339 335 338 338 336 340 324 330 337 338 354 3 15 18 14 9 7 6 3 4 5
201 206 211 215 220 229 241 249 264 283 301 312 319 322 320 320 322 326 332 337 331 329 331 333 336 338 335 333 328 333 339 345 354 9 3 3 5 6 7 3 4 8 8
204 209 212 216 225 235 244 250 260 272 284 298 308 311 314 314 323 331 334 333 328 325 322 321 325 331 331 333 327 328 342 346 340 340 348 350 352 353 353 356 5 10 8
207 210 215 226 231 238 243 251 259 269 280 290 299 303 309 320 329 330 332 339 335 327 316 310 315 324 323 323 322 313 319 326 324 325 329 336 337 339 348 354 3 7 10
208 214 228 227 234 238 245 254 262 272 281 289 295 305 313 319 326 336 334 329 327 323 315 309 301 313 315 308 302 299 301 304 303 305 314 323 330 338 347 355 355 357 358
214 223 226 230 235 240 246 257 265 273 280 288 297 305 310 314 318 321 321 320 321 309 299 298 296 307 310 309 306 300 300 302 304 306 315 322 330 339 344 346 346 346 347
227 234 230 233 237 241 250 262 272 275 279 284 291 294 298 305 307 308 310 311 309 299 290 291 293 299 302 300 300 301 301 300 302 310 317 323 330 332 334 336 338 340 340
230 228 232 233 238 246 255 263 274 276 275 280 285 289 293 295 294 297 302 304 300 294 289 287 288 292 295 297 298 297 295 296 301 307 312 320 324 327 327 329 333 337 339
229 231 233 237 243 250 257 265 277 283 282 278 277 282 288 290 291 293 294 293 292 290 287 287 287 287 285 283 283 283 285 291 302 307 313 318 320 321 325 331 335 334 334
232 235 238 242 247 252 258 266 274 280 282 282 283 281 280 281 283 285 287 289 290 290 290 290 285 282 280 279 278 279 282 296 303 307 310 315 317 321 325 329 331 334 337
237 241 243 244 249 253 260 268 273 277 278 279 280 281 282 285 281 279 281 284 284 284 283 282 282 281 280 278 278 278 282 289 296 302 306 308 313 319 324 328 332 338 340
240 242 244 247 249 254 259 263 267 270 273 275 276 277 280 284 283 282 281 280 282 284 285 284 283 281 279 278 278 278 281 286 292 294 295 300 305 311 317 320 325 329 330
243 243 244 247 250 253 257 260 264 268 271 273 274 274 275 278 280 281 280 279 278 277 278 281 284 284 283 283 281 280 279 280 284 283 285 289 294 300 306 310 313 317 317
244 245 248 249 250 252 255 259 262 265 267 269 271 272 272 274 276 277 277 275 275 275 277 278 279 280 282 282 279 274 271 273 275 276 279 282 288 293 298 301 304 306 307
250 248 248 249 250 251 252 255 258 261 265 267 268 269 270 272 271 271 272 273 273 274 275 277 278 279 279 276 270 266 268 272 273 275 277 281 285 289 293 295 297 299 300
245 243 244 244 246 248 252 254 257 259 261 262 265 267 267 268 271 272 272 272 274 274 275 275 276 275 273 269 264 263 267 272 274 277 279 281 284 288 290 293 293 294 294
Wind_Speed_850mb
56 58 56 50 43 38 31 24 17 11 5 4 11 17 21 28 33 36 40 43 45 46 48 52 53 55 55 55 55 56 58 60 75 116 98 102 102 98 100 95 90 83 80
58 55 52 47 40 33 26 20 12 5 4 11 15 20 25 31 37 42 43 45 47 49 50 51 51 53 52 54 57 58 59 57 61 86 101 104 93 93 96 97 93 86 85
56 52 49 43 36 28 21 14 6 5 9 13 19 24 30 35 39 44 47 48 48 48 50 51 52 53 55 56 57 59 61 58 59 68 93 91 98 94 98 91 93 89 80
55 49 43 38 31 24 16 9 6 7 11 16 23 29 34 39 43 45 46 48 49 49 48 48 50 54 59 62 63 63 63 59 62 67 79 90 87 83 72 86 99 88 89
56 49 41 35 29 20 14 9 7 8 14 21 26 32 36 39 41 44 46 49 53 53 51 52 53 56 59 60 59 59 54 56 61 68 77 79 80 89 83 84 87 98 89
55 48 41 35 26 18 12 9 7 12 19 25 28 29 33 36 39 43 49 53 55 55 54 54 56 58 59 56 50 42 44 52 56 57 62 66 76 81 88 82 75 83 95
57 50 43 34 26 18 14 10 10 17 21 24 27 30 33 36 39 45 50 54 54 54 54 54 55 56 53 53 49 49 47 44 37 43 58 61 68 68 70 76 79 73 73
60 52 43 33 25 20 15 13 15 17 18 24 28 30 33 37 41 47 52 54 53 50 50 50 52 53 51 47 49 45 46 41 41 51 42 44 45 52 56 57 61 61 55
60 51 41 32 26 21 17 16 15 15 20 24 27 29 32 37 41 46 51 52 49 47 44 42 41 46 44 43 42 47 46 44 48 37 33 36 37 38 44 49 55 62 68
63 51 40 34 28 24 20 17 16 17 18 23 26 29 31 36 41 45 46 45 42 42 42 41 39 37 40 35 35 42 43 48 42 36 31 29 31 34 40 48 52 55 57
61 51 43 36 31 26 21 19 16 14 17 21 25 27 32 35 38 42 42 39 40 41 41 41 37 36 34 29 31 37 40 33 27 27 24 24 28 36 41 45 48 50 51
59 50 44 38 32 26 23 21 17 17 18 21 24 26 28 31 34 35 35 32 33 38 37 34 32 35 30 31 31 33 33 26 16 14 18 26 35 44 46 47 45 42 43
60 52 44 39 32 29 26 25 23 21 20 22 24 25 25 28 28 31 31 27 27 29 29 27 28 31 29 30 30 26 28 18 16 18 23 30 37 42 41 35 35 35 35
59 51 43 38 34 32 30 28 27 25 25 25 27 27 27 26 27 29 34 35 33 27 25 25 24 28 29 28 27 23 24 24 25 27 27 30 34 35 36 38 38 34 31
56 45 45 43 40 36 32 30 28 28 28 30 31 32 33 30 28 30 33 36 36 31 29 27 22 23 25 25 27 28 28 28 27 29 29 29 30 32 33 35 36 37 36
52 49 47 46 40 36 33 30 29 31 34 35 35 36 38 38 35 31 29 30 31 28 26 27 25 27 29 30 28 27 27 26 26 26 26 27 28 30 34 34 34 35 34
41 53 51 47 46 40 35 31 32 34 36 38 37 38 38 37 35 34 31 29 27 22 25 28 29 31 35 33 32 31 31 30 28 25 25 26 29 32 33 34 33 31 30
61 57 56 53 48 44 41 39 36 34 34 35 38 40 38 36 37 35 31 32 30 26 26 28 30 32 34 34 33 33 31 29 28 28 28 32 36 37 36 33 32 32 30
63 63 58 53 50 48 46 43 39 38 38 36 34 39 43 38 39 38 36 35 34 33 33 32 32 32 33 34 34 31 30 27 29 34 36 36 34 32 30 28 27 27 26
63 60 56 55 54 52 49 45 42 40 40 41 40 38 40 37 37 40 40 39 38 36 35 34 34 35 36 35 34 32 29 26 31 36 35 34 31 28 26 25 24 22 22
59 60 62 61 58 55 50 46 44 44 43 43 42 42 44 40 35 36 38 38 38 37 36 36 37 37 37 37 36 34 31 29 31 32 33 30 27 24 21 20 20 21 21
65 64 64 62 59 55 52 50 48 47 46 45 43 41 43 41 38 36 36 37 37 37 38 39 40 40 40 40 40 38 35 34 30 29 28 26 24 22 20 21 22 23 24
69 68 66 63 59 56 55 53 51 49 47 46 44 42 42 41 40 38 37 37 38 37 37 38 40 42 43 44 43 40 35 29 28 30 28 26 26 25 25 26 28 28 29
73 69 67 64 63 60 58 55 52 50 49 47 45 43 41 40 39 38 38 38 38 39 40 40 40 43 44 43 42 38 32 28 30 32 32 31 31 31 31 33 35 36 35
74 74 71 70 66 61 58 55 52 50 49 47 45 44 43 43 41 40 40 41 42 41 43 45 45 45 45 45 42 36 31 33 36 37 37 38 38 38 39 39 41 42 42
80 76 73 70 66 60 56 52 50 49 48 46 46 47 45 44 44 44 43 46 47 46 48 47 46 45 45 45 41 37 36 39 42 44 45 45 46 46 46 46 47 49 50
Wind_Direction_850mb
170 170 169 165 166 164 162 163 162 167 191 291 315 322 324 322 321 321 322 320 320 320 318 318 319 318 318 316 313 311 308 304 298 302 307 311 313 317 317 317 316 314 311
168 167 167 166 166 166 168 170 172 191 297 321 323 324 324 320 318 317 319 320 321 323 323 322 323 322 322 320 318 316 313 311 306 304 312 316 317 320 318 320 321 318 316
170 172 170 168 168 171 172 175 187 280 304 317 322 321 320 318 317 317 320 322 324 327 327 327 327 325 325 325 324 324 323 320 313 309 312 318 322 326 325 325 324 321 317
174 175 175 174 173 176 181 187 232 277 309 319 318 316 316 315 317 318 320 324 325 326 326 325 325 327 328 328 327 327 326 323 324 322 321 322 321 323 319 322 319 318 317
180 180 179 179 181 184 192 213 254 295 308 314 315 313 315 317 320 323 326 327 328 329 329 328 328 327 328 329 329 329 329 330 329 325 320 317 319 322 324 328 324 326 328
185 184 186 186 187 194 210 231 269 300 305 307 310 315 318 322 327 329 330 332 332 332 331 331 330 332 334 333 334 337 337 330 323 322 321 326 328 328 330 328 331 324 324
188 189 191 191 196 203 218 242 278 294 302 308 315 322 327 330 332 333 333 334 333 333 331 331 331 336 336 336 339 337 338 341 338 332 323 326 326 330 327 324 327 329 328
191 193 195 197 202 213 227 249 275 292 304 310 318 327 329 333 336 333 335 337 336 334 333 333 338 338 340 341 336 340 341 348 336 335 329 326 323 323 325 331 335 336 346
195 197 200 203 209 220 238 260 276 291 300 312 322 331 335 334 333 334 334 332 331 328 326 335 338 337 340 341 343 340 340 338 339 344 344 340 343 344 344 349 357 357 356
198 200 203 209 215 224 236 253 265 281 305 320 330 334 336 334 333 331 330 328 324 325 337 341 339 340 339 341 339 329 337 333 344 357 4 4 6 4 2 0 359 3 6
199 202 207 212 218 226 239 247 264 294 309 323 327 332 333 332 329 328 330 333 331 336 339 335 338 338 336 340 324 330 337 338 354 3 15 18 14 9 7 6 3 4 5
201 206 211 215 220 229 241 249 264 283 301 312 319 322 320 320 322 326 332 337 331 329 331 333 336 338 335 333 328 333 339 345 354 9 3 3 5 6 7 3 4 8 8
204 209 212 216 225 235 244 250 260 272 284 298 308 311 314 314 323 331 334 333 328 325 322 321 325 331 331 333 327 328 342 346 340 340 348 350 352 353 353 356 5 10 8
207 210 215 226 231 238 243 251 259 269 280 290 299 303 309 320 329 330 332 339 335 327 316 310 315 324 323 323 322 313 319 326 324 325 329 336 337 339 348 354 3 7 10
208 214 228 227 234 238 245 254 262 272 281 289 295 305 313 319 326 336 334 329 327 323 315 309 301 313 315 308 302 299 301 304 303 305 314 323 330 338 347 355 355 357 358
214 223 226 230 235 240 246 257 265 273 280 288 297 305 310 314 318 321 321 320 321 309 299 298 296 307 310 309 306 300 300 302 304 306 315 322 330 339 344 346 346 346 347
227 234 230 233 237 241 250 262 272 275 279 284 291 294 298 305 307 308 310 311 309 299 290 291 293 299 302 300 300 301 301 300 302 310 317 323 330 332 334 336 338 340 340
230 228 232 233 238 246 255 263 274 276 275 280 285 289 293 295 294 297 302 304 300 294 289 287 288 292 295 297 298 297 295 296 301 307 312 320 324 327 327 329 333 337 339
229 231 233 237 243 250 257 265 277 283 282 278 277 282 288 290 291 293 294 293 292 290 287 287 287 287 285 283 283 283 285 291 302 307 313 318 320 321 325 331 335 334 334
232 235 238 242 247 252 258 266 274 280 282 282 283 281 280 281 283 285 287 289 290 290 290 290 285 282 280 279 278 279 282 296 303 307 310 315 317 321 325 329 331 334 337
237 241 243 244 249 253 260 268 273 277 278 279 280 281 282 285 281 279 281 284 284 284 283 282 282 281 280 278 278 278 282 289 296 302 306 308 313 319 324 328 332 338 340
240 242 244 247 249 254 259 263 267 270 273 275 276 277 280 284 283 282 281 280 282 284 285 284 283 281 279 278 278 278 281 286 292 294 295 300 305 311 317 320 325 329 330
243 243 244 247 250 253 257 260 264 268 271 273 274 274 275 278 280 281 280 279 278 277 278 281 284 284 283 283 281 280 279 280 284 283 285 289 294 300 306 310 313 317 317
244 245 248 249 250 252 255 259 262 265 267 269 271 272 272 274 276 277 277 275 275 275 277 278 279 280 282 282 279 274 271 273 275 276 279 282 288 293 298 301 304 306 307
250 248 248 249 250 251 252 255 258 261 265 267 268 269 270 272 271 271 272 273 273 274 275 277 278 279 279 276 270 266 268 272 273 275 277 281 285 289 293 295 297 299 300
245 243 244 244 246 248 252 254 257 259 261 262 265 267 267 268 271 272 272 272 274 274 275 275 276 275 273 269 264 263 267 272 274 277 279 281 284 288 290 293 293 294 294